EN

Hourly Weather Dhupgari

Today, 25 November, Wednesday

Time Temperature Precipitation Wind Pressure Humidity
00:00 +20°C° 0 mm 1 mps 756 mmHg 66%
01:00 +19°C° 0 mm 1 mps 756 mmHg 64%
02:00 +19°C° 0 mm 1 mps 756 mmHg 63%
03:00 +19°C° 0 mm 1 mps 756 mmHg 62%
04:00 +19°C° 0 mm 1 mps 756 mmHg 62%
05:00 +18°C° 0 mm 1 mps 756 mmHg 62%
06:00 +18°C° 0 mm 1 mps 756 mmHg 61%
07:00 +20°C° 0 mm 1 mps 756 mmHg 57%
08:00 +22°C° 0 mm 1 mps 756 mmHg 54%
09:00 +23°C° 0 mm 1 mps 757 mmHg 50%
10:00 +25°C° 0 mm 1 mps 756 mmHg 47%
11:00 +27°C° 0 mm 1 mps 756 mmHg 44%
12:00 +28°C° 0 mm 1 mps 756 mmHg 41%
13:00 +28°C° 0 mm 1 mps 755 mmHg 40%
14:00 +29°C° 0 mm 1 mps 755 mmHg 38%
15:00 +29°C° 0 mm 1 mps 754 mmHg 36%
16:00 +27°C° 0 mm 1 mps 754 mmHg 42%
17:00 +25°C° 0 mm 1 mps 755 mmHg 48%
18:00 +23°C° 0 mm 1 mps 755 mmHg 54%
19:00 +22°C° 0 mm 1 mps 756 mmHg 56%
20:00 +21°C° 0 mm 1 mps 756 mmHg 58%
21:00 +20°C° 0 mm 2 mps 757 mmHg 60%
22:00 +19°C° 0 mm 2 mps 757 mmHg 60%
23:00 +20°C° 0 mm 1 mps 757 mmHg 60%

Tomorrow, 26 November, Thursday

Time Temperature Precipitation Wind Pressure Humidity
00:00 +20°C° 0 mm 1 mps 757 mmHg 60%
01:00 +20°C° 0 mm 1 mps 757 mmHg 59%
02:00 +19°C° 0 mm 1 mps 756 mmHg 58%
03:00 +19°C° 0 mm 1 mps 756 mmHg 58%
04:00 +19°C° 0 mm 1 mps 756 mmHg 59%
05:00 +18°C° 0 mm 1 mps 756 mmHg 60%
06:00 +18°C° 0 mm 1 mps 756 mmHg 61%
07:00 +20°C° 0 mm 1 mps 757 mmHg 57%
08:00 +21°C° 0 mm 1 mps 757 mmHg 53%
09:00 +23°C° 0 mm 1 mps 758 mmHg 49%
10:00 +25°C° 0 mm 1 mps 757 mmHg 45%
11:00 +26°C° 0 mm 1 mps 757 mmHg 42%
12:00 +28°C° 0 mm 1 mps 756 mmHg 38%
13:00 +28°C° 0 mm 1 mps 756 mmHg 37%
14:00 +29°C° 0 mm 1 mps 755 mmHg 36%
15:00 +27°C° 0 mm 0 mps 755 mmHg 34%
16:00 +27°C° 0 mm 1 mps 755 mmHg 40%
17:00 +25°C° 0 mm 1 mps 755 mmHg 45%
18:00 +23°C° 0 mm 1 mps 756 mmHg 51%
19:00 +22°C° 0 mm 1 mps 756 mmHg 53%
20:00 +22°C° 0 mm 1 mps 757 mmHg 55%
21:00 +19°C° 0 mm 0 mps 757 mmHg 56%
22:00 +19°C° 0 mm 0 mps 757 mmHg 56%
23:00 +19°C° 0 mm 0 mps 757 mmHg 56%

Day after tomorrow, 27 November, Friday

Time Temperature Precipitation Wind Pressure Humidity
00:00 +19°C° 0 mm 0 mps 757 mmHg 56%
01:00 +19°C° 0 mm 0 mps 757 mmHg 56%
02:00 +20°C° 0 mm 1 mps 757 mmHg 56%
03:00 +20°C° 0 mm 1 mps 756 mmHg 56%
04:00 +20°C° 0 mm 1 mps 757 mmHg 55%
05:00 +18°C° 0 mm 0 mps 757 mmHg 53%
06:00 +18°C° 0 mm 0 mps 757 mmHg 52%
07:00 +19°C° 0 mm 0 mps 757 mmHg 51%
08:00 +22°C° 0 mm 1 mps 758 mmHg 50%
09:00 +23°C° 0 mm 1 mps 758 mmHg 50%
10:00 +24°C° 0 mm 1 mps 758 mmHg 47%
11:00 +23°C° 0 mm 0 mps 758 mmHg 44%
12:00 +24°C° 0 mm 0 mps 757 mmHg 42%
13:00 +24°C° 0 mm 0 mps 757 mmHg 42%
14:00 +25°C° 0 mm 0 mps 756 mmHg 42%
15:00 +27°C° 0 mm 1 mps 756 mmHg 43%
16:00 +25°C° 0 mm 1 mps 756 mmHg 47%
17:00 +22°C° 0 mm 0 mps 756 mmHg 51%
18:00 +20°C° 0 mm 0 mps 757 mmHg 54%
19:00 +22°C° 0 mm 1 mps 757 mmHg 56%
20:00 +21°C° 0 mm 1 mps 757 mmHg 58%
21:00 +21°C° 0 mm 1 mps 758 mmHg 60%
22:00 +20°C° 0 mm 1 mps 757 mmHg 60%
23:00 +19°C° 0 mm 1 mps 757 mmHg 60%

28 November, Saturday

Time Temperature Precipitation Wind Pressure Humidity
00:00 +19°C° 0 mm 1 mps 757 mmHg 60%
01:00 +19°C° 0 mm 1 mps 757 mmHg 59%
02:00 +18°C° 0 mm 1 mps 757 mmHg 58%
03:00 +18°C° 0 mm 1 mps 756 mmHg 56%
04:00 +18°C° 0 mm 1 mps 756 mmHg 55%
05:00 +16°C° 0 mm 1 mps 757 mmHg 54%
06:00 +15°C° 0 mm 0 mps 757 mmHg 53%
07:00 +19°C° 0 mm 1 mps 757 mmHg 50%
08:00 +21°C° 0 mm 1 mps 758 mmHg 46%
09:00 +23°C° 0 mm 1 mps 758 mmHg 42%
10:00 +25°C° 0 mm 1 mps 758 mmHg 39%
11:00 +27°C° 0 mm 1 mps 757 mmHg 37%
12:00 +28°C° 0 mm 1 mps 757 mmHg 35%
13:00 +29°C° 0 mm 1 mps 756 mmHg 34%
14:00 +27°C° 0 mm 0 mps 755 mmHg 32%
15:00 +27°C° 0 mm 0 mps 755 mmHg 31%
16:00 +25°C° 0 mm 0 mps 755 mmHg 36%
17:00 +25°C° 0 mm 1 mps 755 mmHg 41%
18:00 +23°C° 0 mm 1 mps 756 mmHg 45%
19:00 +22°C° 0 mm 1 mps 756 mmHg 47%
20:00 +21°C° 0 mm 1 mps 757 mmHg 49%
21:00 +21°C° 0 mm 1 mps 757 mmHg 50%
22:00 +20°C° 0 mm 1 mps 757 mmHg 50%
23:00 +20°C° 0 mm 1 mps 757 mmHg 49%

29 November, Sunday

Time Temperature Precipitation Wind Pressure Humidity
00:00 +20°C° 0 mm 1 mps 757 mmHg 48%
01:00 +19°C° 0 mm 1 mps 756 mmHg 47%
02:00 +19°C° 0 mm 1 mps 756 mmHg 46%
03:00 +19°C° 0 mm 1 mps 756 mmHg 45%
04:00 +18°C° 0 mm 1 mps 756 mmHg 46%
05:00 +18°C° 0 mm 1 mps 756 mmHg 48%
06:00 +18°C° 0 mm 1 mps 756 mmHg 49%
07:00 +19°C° 0 mm 1 mps 757 mmHg 47%
08:00 +21°C° 0 mm 1 mps 757 mmHg 45%
09:00 +23°C° 0 mm 1 mps 758 mmHg 43%
10:00 +25°C° 0 mm 1 mps 757 mmHg 40%
11:00 +27°C° 0 mm 1 mps 757 mmHg 37%
12:00 +28°C° 0 mm 1 mps 756 mmHg 34%
13:00 +29°C° 0 mm 1 mps 756 mmHg 33%
14:00 +29°C° 0 mm 1 mps 755 mmHg 33%
15:00 +29°C° 0 mm 1 mps 754 mmHg 32%
16:00 +27°C° 0 mm 1 mps 755 mmHg 37%
17:00 +25°C° 0 mm 1 mps 755 mmHg 42%
18:00 +23°C° 0 mm 1 mps 755 mmHg 47%
19:00 +22°C° 0 mm 1 mps 756 mmHg 49%
20:00 +21°C° 0 mm 1 mps 756 mmHg 50%
21:00 +20°C° 0 mm 1 mps 756 mmHg 52%
22:00 +20°C° 0 mm 1 mps 756 mmHg 53%
23:00 +20°C° 0 mm 1 mps 756 mmHg 53%

30 November, Monday

Time Temperature Precipitation Wind Pressure Humidity
00:00 +19°C° 0 mm 1 mps 756 mmHg 54%
01:00 +19°C° 0 mm 1 mps 756 mmHg 53%
02:00 +19°C° 0 mm 1 mps 755 mmHg 53%
03:00 +18°C° 0 mm 1 mps 755 mmHg 53%
04:00 +18°C° 0 mm 1 mps 755 mmHg 52%
05:00 +18°C° 0 mm 1 mps 755 mmHg 51%
06:00 +18°C° 0 mm 1 mps 755 mmHg 50%
07:00 +20°C° 0 mm 1 mps 756 mmHg 47%
08:00 +21°C° 0 mm 1 mps 756 mmHg 44%
09:00 +23°C° 0 mm 1 mps 757 mmHg 41%
10:00 +25°C° 0 mm 1 mps 756 mmHg 39%
11:00 +27°C° 0 mm 1 mps 756 mmHg 37%
12:00 +28°C° 0 mm 1 mps 755 mmHg 35%
13:00 +28°C° 0 mm 1 mps 755 mmHg 35%
14:00 +29°C° 0 mm 1 mps 754 mmHg 34%
15:00 +29°C° 0 mm 1 mps 753 mmHg 33%
16:00 +27°C° 0 mm 1 mps 754 mmHg 39%
17:00 +25°C° 0 mm 1 mps 754 mmHg 44%
18:00 +23°C° 0 mm 1 mps 755 mmHg 49%
19:00 +22°C° 0 mm 1 mps 755 mmHg 51%
20:00 +21°C° 0 mm 1 mps 755 mmHg 53%
21:00 +20°C° 0 mm 1 mps 756 mmHg 55%
22:00 +20°C° 0 mm 1 mps 755 mmHg 55%
23:00 +20°C° 0 mm 1 mps 755 mmHg 55%
Show more